Location: Balagbag Mahabang Kahoy
(14.1562°N, 120.9200°E)
Time: 04:37:30
(UTC+00:00)

RESURS DK-1 - Pass Details

Date: 16 January 2026
Orbit: 526 x 531 km, 69.9° (Epoch: 15 February)

Event Time Altitude Azimuth Distance (km) Brightness Sun altitude
Exits shadow 20:28:19 32° 147° (SSE) 911 3.8 -27.5°
Drops below altitude 10° 20:30:33 10° 156° (SSE) 1,761 5.4 -27.0°
Sets 20:32:43 0° 158° (SSE) 2,647 6.3 -26.5°
